Regional Weather Roundup
Issued by NWS

Home | Current Version | Previous Version | Text Only | Print | Product List | Glossary On
Versions: 1 2 3 4 5 6 7 8 9 10 11 12 13 14 15 16 17 18 19 20 21 22 23 24 25 26 27 28 29 30 31 32 33 34 35 36 37 38 39 40 41 42 43 44 45 46 47 48 49 50
000
ASHW40 PHFO 200443
RWRHI

WEATHER ROUNDUP FOR HAWAII
NATIONAL WEATHER SERVICE HONOLULU HI
600 PM HST FRI DEC 19 2014

THIS IS AN AUTOMATED REPORT THAT HAS NOT BEEN QUALITY CONTROLLED.

NOTE..."FAIR" INDICATES FEW OR NO CLOUDS BELOW 12,000 FEET WITH NO
SIGNIFICANT WEATHER AND/OR OBSTRUCTIONS TO VISIBILITY.

* - THESE SITES REPORT LIMITED FIELDS

HIZ001>004-200500-
KAUAI-NIIHAU-

CITY           SKY/WX    TMP DP  RH WIND       PRES   REMARKS
LIHUE APT      MOCLDY    76  68  76 NE10      30.04R
PORT ALLEN*      N/A     77 N/A N/A E14         N/A
POIPU*           N/A     77 N/A N/A NE6G12      N/A
PRINCEVILLE*     N/A     75 N/A N/A MISG        N/A
KOKOLE POINT*  NOT AVBL
MOLOAA DAIRY*  NOT AVBL
WAIMEA HTS*      N/A     73  59  60 NE2G12      N/A
PUU OPAE*        N/A     64  59  82 CALM        N/A
PUU LUA*       NOT AVBL
MAKAHA RIDGE*  NOT AVBL
$$

HIZ005>011-200500-
OAHU-

CITY           SKY/WX    TMP DP  RH WIND       PRES   REMARKS
HONOLULU       PTCLDY    79  66  64 E12G22    29.99R
KALAELOA       MOCLDY    77  65  66 VRB5      30.01R
KANEOHE MCB    CLEAR     77  68  73 E9G21     30.01S
WHEELER FIELD  FAIR      73  65  74 SE5       30.03R
BELLOWS*         N/A    N/A N/A N/A E20         N/A
KAHUKU*          N/A    N/A N/A N/A E10G18      N/A
WHEELER*       NOT AVBL
WAIANAE HARBOR NOT AVBL
DILLINGHAM*      N/A     75  64  69 E3G10       N/A
KAHUKU TRN*      N/A     73  68  83 E9G22       N/A
KAWAILOA*        N/A     70  63  78 E5G12       N/A
KII*             N/A     75  70  83 E18G24      N/A
MAKUA RANGE*     N/A     77  63  61 S1G9        N/A
OAHU FOREST NW   N/A     64 -11   4 CALM        N/A
SCHOFIELD BRK*   N/A     73  64  73 MISG        N/A
SCHOFIELD S*   NOT AVBL
WAIANAE VLY*     N/A     72  63  73 S3G18       N/A
KUAOKALA*        N/A    N/A N/A N/A CALM        N/A
HONOULIUULI*   NOT AVBL
MOKUOLOE IS*     N/A    N/A N/A N/A MISG        N/A
PALEHUA*         N/A     79  66  65 CALM        N/A
WAIAWA PHB*    NOT AVBL
$$

HIZ012>013-200500-
MOLOKAI-

CITY           SKY/WX    TMP DP  RH WIND       PRES   REMARKS
MOLOKAI AIRPT  CLEAR     72  63  73 N5        30.00R
KALAUPAPA      NOT AVBL
MAKAPULAPAI*     N/A     75  66  73 E17G25      N/A
MOLOKAI 1*       N/A     64  57  77 N2G14       N/A
PUU ALII*        N/A     58  57  96 SE3G14      N/A
$$

HIZ016-200500-
KAHOOLAWE-

CITY           SKY/WX    TMP DP  RH WIND       PRES   REMARKS
KAHOOLAWE*       N/A     70 N/A N/A E26G41      N/A
HAKIOAWA*        N/A     70  65  84 MISG      30.43R
HONOKANAIA*      N/A     76  65  70 NE16G33   30.01
KANELOA*         N/A     75  68  78 E24G41    29.21
KEALIALALO*    NOT AVBL
LUA MAKIKA*    NOT AVBL
$$

HIZ014>015-200500-
LANAI-

CITY           SKY/WX    TMP DP  RH WIND       PRES   REMARKS
LANAI CITY     FAIR      71  66  84 SW6       30.06R
LANAI 1*         N/A     70  70 100 SW7         N/A
$$

HIZ017>028-200500-
MAUI-

CITY           SKY/WX    TMP DP  RH WIND       PRES   REMARKS
KAHULUI        PTCLDY    77  62  59 E10       29.98R
KAPALUA-W MAUI PTCLDY    77  64  65 SE7       30.00R
HANA AIRPORT   PTCLDY    73  66  78 E10       30.06S
HANA*            N/A     75 N/A N/A SE7G17      N/A
HALEAKALA SUMM   N/A     50  -6  10 E29         N/A
MAALAEA BAY*   NOT AVBL
HALEAKALA*     NOT AVBL
KAUPO GAP*       N/A     57  54  88 N2G12       N/A
KULA 1*          N/A     70  -4   5 NE2G21      N/A
$$

HIZ023>026-200500-
BIG ISLAND OF HAWAII COAST AND LOWER SLOPES-

CITY           SKY/WX    TMP DP  RH WIND       PRES   REMARKS
KAILUA KONA    CLEAR     78  68  71 S7        29.99R
HILO           MOCLDY    76  67  73 S3        30.05R
HONOKAA*       NOT AVBL
KAWAIHAE MWT*    N/A     79 N/A N/A SW3         N/A
KAWAIHAE*        N/A     77 N/A N/A SW2         N/A
SOUTH POINT*     N/A     72 N/A N/A NE20G29     N/A
UPOLU AIRPORT*   N/A    N/A N/A N/A E18G28      N/A
KAMUELA*       CLEAR     63  61  94 NE7       30.12R
HAKALAU*         N/A     56   8  14 SW6G12      N/A
KALOKO-HONOKO*   N/A     75  66  73 SE3       29.98R
PALI 2*          N/A     64  57  77 N16G26      N/A
KEALAKOMO*       N/A     63  52  67 NE16G26     N/A
KAUPULEHU*       N/A     72  63  73 N3G13       N/A
KAPAPALA*        N/A     69  63  81 CALM        N/A
LOWER KAHUKU*    N/A    N/A N/A N/A NE3G16      N/A
PUHE CS*       NOT AVBL
PUHO CS*         N/A     77  66  68 W2          N/A
PTA KEAMUKU*     N/A     63  59  88 CALM        N/A
WAIKOLOA*        N/A     73  64  73 N3          N/A
$$

HIZ027>028-200500-
BIG ISLAND OF HAWAII INTERIOR AND SUMMMITS-

CITY           SKY/WX    TMP DP  RH WIND       PRES   REMARKS
BRADSHAW FIELD CLEAR     68  -3   6 SE13G21   30.34R
MK VISITOR CEN NOT AVBL
MAUNA KEA*       N/A     32 -11  15 SE35        N/A  WCI  17
MAUNA LOA*       N/A     48 -17   6 MISG        N/A
MAUNA LOA 1*   NOT AVBL
PTA KIPUKA*      N/A     61  54  77 N2          N/A
PTA RANGE 17*    N/A     57  54  88 W2G16       N/A
PTA WEST*        N/A     61  57  88 N3          N/A
NENE CABIN*      N/A    N/A N/A N/A E6          N/A
AHUMOA*          N/A    N/A N/A N/A NE6G12      N/A
PTA PORTABLE*  NOT AVBL
PUU MALI*      NOT AVBL
$$

HIC003-200500-
NORTHWEST ISLANDS-

CITY           SKY/WX    TMP DP  RH WIND       PRES   REMARKS
MIDWAY ISLAND  LGT RAIN  64  63  94 N20G35    29.94R
MIDWAY NOS*    NOT AVBL
FRENCH FRIGATE NOT AVBL
$$

PHZ110>124-180-200500-
BUOY REPORTS

STATION/POSITION TIME  TEMP    WIND        PRES    WAVE   SWELL
                       AIR SEA DIR/SP/G            HT/PER HT/DIR
                 (UTC) (F)     (DEG/KT/KT) (MB)    (FT/S) (FT/D)
BUOY 51001       NOT AVBL
BUOY 51101       0400   76 77  130/ 10/ 12 1016.8R   7/12   7/320
BUOY 51100       0400   74     100/ 14     1018.9R
BUOY 51003       0400   79 79  100/ 14/ 17 1015.2R  10/ 8   8
BUOY 51004       0311   77 78   80/ 21/ 27 1014.4R  11/15   7/310
BARBERS PT BUOY  NOT AVBL
WAIMEA BAY BUOY  0400      78                N/A     8/13
KAILUA BAY BUOY  0400      77                N/A     8/13   5/360
LANAI BUOY       0400      78                N/A     3/13   2/290
BARBERS PT 2     0400      78                N/A     6/13   3/310
PAUWELA MAUI     0400      77                N/A    10/13
HILO             0400      78                N/A    10/14
KANEOHE BAY BUOY 0400      77                N/A     7/13   3/350
HANALEI KAUAI    NOT AVBL
KAHULUI HARBOR   0400   77 76  240/  3/  9 1015.4R
HONOLULU HARBOR  0400   78      50/  4/  5 1016.4R
KILO NALU        NOT AVBL
HILO HARBOR      0400   77     180/  4/  6 1017.4R
MOKUOLOE         0400   75 75  100/ 12/ 17 1016.9R
NAWILIWILI       0400      76                N/A
WHOTS BUOY       NOT AVBL
BUOY 51028       NOT AVBL
$$

......................KEY........................................
  SKY/WX - SKY CONDITIONS/PRESENT WEATHER
  TMP    - TEMPERATURE IN FAHRENHEIT
  DWPT   - DEWPOINT IN FAHRENHEIT
  RH     - RELATIVE HUMIDITY IN PERCENT
  WIND   - DIRECTION AND SPEED /MPH FOR ISLANDS...KTS FOR BUOYS/
  PRES   - MEAN SEA LEVEL PRESSURE IN INCHES OF HG
  VSB    - VISIBILITY IN MILES
  HX     - HEAT INDEX
  WCI    - WIND CHILL INDEX
  VRB    - VARIABLE WIND DIRECTION
  N/A    - NOT AVAILABLE


USA.gov is the U.S. government's official web portal to all federal, state and local government web resources and services.